User: anonymous   Login
Location: Beuerbach
(48.1459°N, 10.9174°E)
Time: 19:57:21
(UTC+00:00)
Language:

Meteor 2-5 Rocket - Orbit

View from above orbital plane
View from above orbital plane
View from above satellite
View from above satellite

Ground track
Ground track

The orbit data is extracted from the following two-line orbital elements,

1 11608U 79095B   24199.52962878  .00000305  00000-0  17482-3 0  9991
2 11608  81.2115 219.8629 0055192  93.6477 267.1006 14.06370926293465
Epoch (UTC): 17 July 2024 12:42:39
Eccentricity: 0.0055192
inclination: 81.2115°
perigee height: 832 km
apogee height: 912 km
right ascension of ascending node: 219.8629°
argument of perigee: 93.6477°
revolutions per day: 14.06370926
mean anomaly at epoch: 267.1006°
orbit number at epoch: 29346

The dashed part of the orbit path shows where the satellite is in the earth's shadow,  

DLR